Theta_e
335 334 334 333 333 335 335 333 333 333 333 332 331 331 331 333 333 334 334 335 334 335 335 335 334 334 334 335 335 334 336 336 335 335 335 335 334 334 333 333 334 331
336 336 335 333 333 335 334 334 334 333 334 333 332 332 333 333 334 333 332 333 333 333 333 333 333 333 333 332 334 336 337 337 336 335 336 336 336 337 336 335 335 334
338 338 337 335 334 334 334 334 335 334 333 333 333 333 333 334 334 333 333 334 332 332 333 333 333 332 332 332 334 337 337 338 338 337 338 336 338 337 337 337 335 334
336 337 335 334 334 334 335 334 333 333 334 333 332 332 332 332 333 332 332 331 332 332 332 332 332 332 331 331 333 332 333 335 335 337 337 337 337 336 337 337 335 333
334 335 335 333 333 334 334 333 333 333 332 332 333 333 331 331 331 331 331 330 331 331 331 331 331 331 331 331 331 330 331 331 334 334 332 333 335 335 336 336 335 333
334 335 335 333 333 334 333 332 331 332 332 332 333 332 331 330 330 330 330 329 328 330 330 330 329 329 331 331 331 330 330 328 331 331 331 331 331 333 331 333 335 333
332 334 334 333 333 333 333 332 332 332 332 333 332 332 331 330 328 330 328 329 328 328 327 328 327 328 330 331 330 329 328 328 328 328 326 326 327 330 329 331 332 332
331 333 334 334 333 332 332 331 332 332 332 332 332 332 331 328 328 329 328 328 326 327 327 326 325 325 328 330 328 328 328 327 327 326 326 326 327 325 327 329 333 332
332 332 333 334 333 332 330 331 331 331 331 331 331 331 331 329 328 328 327 326 325 327 327 325 323 323 327 328 328 328 327 327 327 326 325 325 326 325 324 326 329 333
331 332 334 334 333 331 329 331 331 331 331 331 330 330 328 328 327 327 326 325 324 325 325 323 322 322 324 325 325 326 326 326 325 325 325 325 323 322 322 325 327 331
331 333 332 330 332 330 331 331 331 331 332 330 330 329 327 326 326 326 324 323 324 323 322 322 321 320 322 323 325 326 326 326 325 324 324 324 324 323 325 325 327 331
331 331 329 329 329 332 333 332 331 331 330 329 327 325 324 324 323 322 321 321 322 321 322 321 320 320 319 321 323 324 325 326 326 325 323 323 323 323 323 324 326 327
329 329 330 330 330 331 332 330 330 330 328 326 324 322 322 321 321 321 321 320 320 321 320 320 319 319 320 321 321 322 323 323 324 325 325 324 323 322 323 324 324 326
328 330 330 329 329 329 328 329 328 327 326 324 323 323 322 321 321 321 321 319 319 319 319 320 319 319 319 320 320 321 321 321 321 322 324 324 325 323 324 324 324 325
327 328 329 329 328 327 326 326 326 325 323 322 322 323 322 321 322 321 320 320 320 321 320 322 323 323 323 323 323 320 321 321 321 319 321 323 324 324 323 322 323 324
327 327 327 326 326 326 326 326 326 326 326 325 324 323 324 324 323 323 322 322 322 322 324 326 326 320 304 296 299 319 323 321 321 322 319 321 321 322 322 322 323 324
324 323 324 324 324 325 325 324 324 326 326 325 326 326 327 326 325 323 323 323 324 325 324 321 315 307 294 292 294 292 317 322 322 322 322 321 321 321 320 321 322 323
318 319 319 319 319 319 318 317 317 318 318 319 321 322 323 326 326 326 326 326 324 323 321 317 311 296 292 294 293 292 296 318 322 322 322 322 323 322 322 322 322 324
313 312 313 313 313 313 314 314 314 314 315 316 317 319 322 323 324 325 323 321 318 315 314 312 309 293 293 292 294 293 294 305 323 322 321 321 322 321 323 323 323 323
311 310 310 310 312 313 313 312 313 312 315 316 317 319 320 321 322 321 320 318 316 313 310 308 306 295 292 291 293 292 294 300 326 324 324 322 321 322 322 322 322 321
307 307 307 307 307 308 309 309 310 310 310 312 313 313 313 314 315 315 316 317 316 313 310 307 302 291 292 291 292 292 292 297 328 328 325 326 326 327 326 326 325 324
304 304 304 305 305 304 303 304 306 307 307 308 309 309 310 310 310 311 311 314 314 313 310 306 302 291 291 292 292 292 292 321 324 325 325 325 327 328 327 328 328 328
302 302 302 302 303 303 303 303 304 305 305 307 306 306 305 305 307 307 309 310 311 311 310 307 304 295 291 291 292 290 304 320 321 321 322 323 324 324 325 326 327 327
301 301 301 301 301 301 302 302 302 302 304 305 306 305 306 305 306 306 306 306 306 308 309 307 304 296 291 292 292 291 297 316 316 318 318 319 320 321 322 323 323 309
301 301 301 301 301 301 302 302 302 303 303 305 306 307 307 307 306 306 305 305 305 306 305 308 307 300 291 291 291 291 299 313 313 314 315 317 316 316 319 319 321 316
301 301 301 301 300 301 302 302 303 304 305 305 305 306 306 306 306 306 305 305 306 307 307 308 308 306 297 291 291 292 291 304 312 311 311 311 312 312 312 315 316 319
Wind_Speed
11 10 10 10 9 8 8 8 7 8 7 7 6 7 7 6 6 5 5 5 5 6 6 6 5 4 3 3 4 4 5 6 5 5 5 5 5 5 5 6 5 6
11 10 8 9 9 8 8 7 8 8 7 7 6 6 6 6 6 5 5 5 6 7 7 6 5 4 3 4 4 4 5 6 6 5 6 7 5 6 5 6 6 5
8 9 10 11 9 10 9 8 8 8 7 6 6 6 6 6 6 5 5 5 5 6 6 5 5 3 3 3 4 5 5 6 6 7 6 7 6 5 5 5 5 6
5 7 9 11 10 11 10 9 8 7 7 7 7 6 6 5 6 6 6 6 6 5 6 5 4 3 3 3 4 5 5 5 5 6 6 5 5 5 5 5 5 6
7 8 9 10 10 11 10 9 10 8 8 8 7 7 7 7 7 7 6 6 6 6 6 6 5 4 3 4 5 5 5 5 5 5 5 6 5 5 5 5 6 6
6 7 9 10 10 11 10 10 10 10 9 9 8 7 7 7 7 7 6 6 6 6 6 6 5 4 4 4 4 4 4 4 4 4 5 5 6 5 4 5 6 7
9 8 9 10 11 12 10 10 10 9 9 8 8 7 7 7 7 7 7 6 6 7 7 5 5 4 4 4 4 5 4 4 4 4 5 5 5 5 4 5 5 6
9 7 8 8 11 11 10 9 9 9 9 8 8 7 7 7 7 6 6 6 6 7 7 6 5 5 4 4 5 5 5 3 4 4 3 4 3 4 4 3 3 5
9 8 8 9 10 10 10 10 9 9 8 8 8 7 6 6 7 7 6 6 6 7 7 6 5 5 3 4 4 6 6 5 3 4 4 4 5 4 5 4 4 4
9 9 10 9 10 9 10 10 9 8 8 9 8 7 7 6 7 7 6 6 7 7 7 6 5 5 5 4 5 5 5 6 5 5 5 5 5 5 4 4 5 5
10 10 10 9 4 6 9 9 9 9 8 9 8 8 7 7 7 6 6 7 6 7 7 6 5 5 5 4 4 3 4 4 4 4 4 4 4 5 3 3 5 5
12 12 13 12 9 7 9 9 9 8 8 8 8 8 8 7 7 6 6 7 7 6 6 5 5 4 5 5 5 5 4 3 4 4 4 4 4 4 4 3 3 5
9 13 11 10 8 7 7 9 9 8 8 7 7 8 8 8 7 7 6 6 6 5 5 5 5 4 4 4 5 5 4 4 4 4 4 3 3 4 3 3 4 5
6 4 9 10 9 8 8 9 9 9 8 7 7 7 7 7 7 7 5 5 6 5 5 4 5 4 4 4 4 4 4 3 4 3 4 4 3 3 3 3 3 4
10 10 8 9 9 8 9 9 9 9 8 8 8 7 6 7 7 7 6 6 5 5 4 3 2 3 5 5 2 4 3 3 2 3 4 4 4 4 3 3 4 4
10 10 11 11 11 10 9 9 9 8 8 8 7 7 6 5 6 5 6 6 5 5 5 4 5 4 8 11 9 6 1 2 2 3 4 4 4 4 4 3 3 4
11 12 12 13 11 9 8 9 8 6 6 6 6 6 6 5 4 5 5 6 6 6 7 6 5 5 11 7 9 10 7 2 2 2 2 3 4 4 4 4 4 4
10 9 11 10 8 8 9 7 7 7 6 6 5 6 5 4 5 6 7 8 8 8 8 7 6 9 10 10 8 8 6 4 2 2 3 3 3 3 3 3 3 3
10 9 8 9 9 8 8 8 7 8 7 7 6 5 5 5 6 7 8 8 9 9 8 7 6 9 10 9 9 8 8 7 2 2 3 3 2 2 1 1 1 1
9 10 8 7 7 8 8 8 7 7 6 6 6 6 7 7 7 8 8 9 8 9 8 8 7 9 9 9 8 8 8 9 0 1 0 1 1 1 1 2 1 2
10 10 9 8 9 9 9 9 8 7 7 6 5 6 6 7 7 7 7 7 8 8 8 8 7 9 10 10 10 8 7 9 0 0 2 2 2 1 1 1 2 2
10 10 10 8 9 9 9 9 8 7 7 7 6 6 6 6 6 7 7 7 7 7 7 8 7 11 11 12 12 11 11 4 1 1 0 1 1 1 2 3 3 3
10 10 9 9 9 9 9 8 7 6 5 5 6 5 6 6 6 6 6 7 6 6 6 6 7 10 11 12 13 14 10 1 0 1 1 0 1 1 2 1 2 2
10 10 9 9 8 9 8 7 6 4 4 3 4 7 6 6 6 6 6 6 7 6 5 5 6 8 11 12 13 14 12 4 2 1 1 1 2 2 3 3 3 7
8 8 8 8 8 7 6 7 6 5 3 3 3 4 5 5 5 5 5 5 5 5 5 3 5 7 10 10 12 13 11 5 3 2 2 1 2 2 2 4 2 5
8 8 7 7 7 7 6 6 4 4 4 4 3 3 4 4 4 5 5 4 4 4 3 3 3 5 8 9 10 11 13 8 3 3 2 2 3 3 3 3 3 2
Wind_Direction
166 169 172 173 167 164 167 165 165 162 166 159 158 158 160 149 153 162 153 169 173 168 164 159 160 161 164 171 183 184 169 166 163 171 177 190 211 195 197 206 197 226
166 168 168 170 163 160 165 168 165 164 161 160 152 153 150 147 160 160 160 161 166 157 156 155 156 159 178 176 171 170 166 161 170 171 177 197 195 190 203 196 200 216
156 158 164 168 163 159 164 167 162 160 157 155 143 148 141 152 159 157 158 162 152 150 152 150 148 159 167 173 175 167 167 162 167 167 180 186 192 193 180 184 199 201
149 156 169 172 165 164 167 163 160 161 154 153 153 145 148 153 156 153 153 157 147 155 151 147 147 149 165 168 186 176 168 168 157 164 176 171 185 185 167 177 176 191
166 172 177 171 166 168 168 166 163 161 164 158 150 151 151 153 156 153 155 156 152 157 153 149 146 137 161 180 185 175 172 165 162 172 175 172 170 170 167 170 172 182
180 181 180 167 166 169 172 170 167 166 164 160 158 156 152 157 157 154 154 152 159 155 159 159 156 153 163 157 177 169 162 158 166 178 180 170 161 162 162 169 170 183
170 179 174 164 166 172 173 170 168 169 166 167 157 158 154 159 156 157 154 155 157 163 162 157 149 154 154 152 147 145 139 134 155 172 169 161 158 154 154 162 172 178
168 167 167 160 170 174 172 166 169 171 168 165 161 152 163 157 156 154 151 162 159 162 158 152 154 145 162 157 140 134 131 143 152 166 155 130 157 155 144 160 159 173
166 161 155 158 170 176 171 168 169 168 167 166 157 153 158 159 148 156 158 155 161 161 157 155 150 142 148 151 142 155 151 141 143 136 138 140 148 147 151 148 161 163
164 160 157 157 169 175 170 169 167 165 170 166 157 155 155 151 153 159 153 156 159 161 153 155 147 150 161 161 153 145 152 148 144 140 138 140 135 136 131 156 160 161
157 146 131 106 96 173 168 165 163 163 167 163 154 154 150 152 154 154 158 154 160 163 157 157 157 157 159 153 143 155 134 141 148 133 132 125 115 103 104 112 152 167
142 140 146 160 148 151 158 159 158 157 157 155 152 147 147 149 149 156 157 154 164 161 156 156 151 153 164 167 157 156 152 139 138 141 140 135 130 129 115 105 118 152
144 152 148 133 136 142 149 153 152 146 147 143 146 142 143 142 142 142 146 150 146 149 150 149 149 152 137 157 165 167 164 160 159 157 150 138 145 134 121 110 105 127
152 141 135 138 134 140 145 141 141 143 141 138 137 136 135 136 136 132 134 130 130 141 128 137 143 160 153 157 163 153 164 161 163 187 174 161 157 153 128 116 110 116
155 148 143 124 120 122 126 127 129 131 138 138 140 136 140 138 140 141 140 134 130 122 124 106 95 53 39 0 1 154 149 159 170 179 194 181 180 165 157 145 129 114
137 132 131 130 132 128 111 112 114 117 119 123 127 130 131 134 141 146 147 148 139 123 103 77 54 46 3 344 339 336 178 128 152 175 195 180 196 164 164 168 141 120
135 133 135 133 127 101 94 93 91 91 95 97 97 93 90 95 122 132 132 120 115 103 86 69 50 25 351 358 350 341 326 185 168 139 174 172 179 178 172 171 174 144
63 88 110 108 105 96 86 71 73 72 71 70 72 79 82 88 98 102 100 94 91 87 80 72 67 11 353 359 2 349 342 318 193 153 166 173 164 184 176 168 165 167
93 76 70 80 81 70 72 79 74 71 65 64 69 80 96 103 104 105 103 97 92 90 83 73 62 20 357 1 1 355 347 318 239 143 194 172 168 185 46 84 146 157
85 88 82 85 89 90 85 83 86 88 94 102 111 113 108 103 99 95 97 98 96 93 85 67 53 10 4 9 7 351 340 314 52 97 319 116 182 171 215 211 218 242
79 78 65 62 76 83 82 84 82 79 82 82 79 76 78 82 86 82 80 92 94 93 87 73 48 6 11 10 9 348 331 300 83 250 185 155 139 132 185 177 209 218
73 79 80 78 74 72 74 67 63 63 66 69 67 64 65 66 69 74 80 83 90 93 91 79 55 23 15 15 6 357 317 265 70 247 298 248 206 192 238 202 216 218
63 70 74 77 84 87 86 83 74 53 55 75 97 88 70 64 63 64 67 72 73 84 88 78 60 26 19 19 13 359 334 35 301 236 156 204 274 323 251 256 254 284
59 64 67 66 63 66 71 79 79 69 51 59 92 98 93 94 87 73 68 69 65 52 57 82 68 41 24 24 14 6 341 324 293 271 250 258 224 231 284 270 82 54
61 67 70 70 72 69 71 77 77 78 76 64 80 95 110 115 116 114 105 91 89 90 34 68 92 73 42 27 16 11 356 327 325 301 270 287 292 251 239 273 197 158
59 63 68 72 77 79 78 83 88 85 76 76 70 79 81 85 92 92 99 99 104 99 86 58 68 80 62 38 24 10 5 341 335 344 333 330 294 300 287 258 253 193